[[{"header":{"parameterUnit":"m.s-1","parameterCategory":1,"la1":30.2991,"la2":30.254,"lo1":-89.0895,"lo2":-89.0444,"dy":0.0017,"dx":0.0017,"nx":28,"ny":28,"refTime":"2023-10-05T21:00:00:Z","depth":0,"parameterNumber":2,"parameterNumberName":"U-component_of_WINDS"},"data":[0,0,0,0,0,0,0,0,0,0,0,0,0,0,0,0,0,0,0,0,0,0,0,0,0,0,0,0,0,0,0,0,0,0,0,0,0,0,0,0,0,0,0,0,0,0,0,0,0,0,0,0,0,0,0,0,0,0,-0.9472,-0.9472,0,-0.9467,-0.9467,-0.9467,-0.9437,-0.9436,-0.9435,-0.9434,-0.943,-0.943,-0.9431,0,0,0,0,0,0,0,0,0,0,0,0,0,-0.9456,-0.9457,-0.9472,-0.9472,-0.9472,-0.9467,-0.9467,-0.9467,-0.9437,-0.9436,-0.9435,-0.9434,-0.943,-0.943,-0.9431,0,0,0,0,0,0,0,0,0,0,0,0,0,-0.9459,-0.9457,-0.9472,-0.9456,-0.9455,-0.9467,-0.9467,-0.9467,-0.9437,-0.9436,-0.9435,-0.9434,-0.9429,-0.943,-0.9431,-0.9458,0,0,-0.9434,-0.9434,0,0,0,0,0,0,0,0,-0.9458,-0.9459,-0.9459,-0.9458,-0.9456,-0.9451,-0.946,-0.9464,-0.9437,-0.9444,-0.9434,-0.9433,-0.9438,-0.9438,-0.9439,-0.9458,-0.9458,-0.9434,-0.9434,-0.9435,-0.9435,0,0,0,0,0,0,0,-0.9458,-0.9459,-0.947,-0.9459,-0.9457,-0.945,-0.9449,-0.946,-0.9447,-0.9443,-0.9441,-0.9441,-0.9437,-0.9439,-0.9439,-0.9458,-0.9434,-0.9434,-0.9435,-0.9435,-0.9497,-0.9498,0,0,0,0,0,0,-0.946,-0.9459,-0.947,-0.947,-0.9454,-0.9451,-0.945,-0.9454,-0.9447,-0.9445,-0.9442,-0.9439,-0.9438,-0.9438,-0.9439,-0.947,-0.9435,-0.9435,-0.9436,-0.9496,-0.9498,-0.9499,0,0,0,0,0,0,-0.946,-0.9462,-0.947,-0.9464,-0.9465,-0.9452,-0.9457,-0.9454,-0.9456,-0.9446,-0.9443,-0.9446,-0.9437,-0.9438,-0.9453,-0.9469,-0.9436,-0.9436,-0.9495,-0.9497,-0.9498,-0.9532,0,0,0,0,0,0,-0.946,-0.9462,-0.9472,-0.9464,-0.9465,-0.9485,-0.9458,-0.9455,-0.9457,-0.9454,-0.9449,-0.9447,-0.9436,-0.9452,-0.9454,-0.947,-0.9437,-0.9493,-0.9496,-0.9498,-0.9529,-0.9535,-0.9539,0,0,0,0,0,-0.9459,-0.9482,-0.9473,-0.9474,-0.9477,-0.9486,-0.9486,-0.9473,-0.9459,-0.9469,-0.9462,-0.9447,-0.9467,-0.9454,-0.9456,-0.9472,-0.9492,-0.9495,-0.9497,-0.9527,-0.9534,-0.9539,0,0,0,0,0,0,-0.9492,-0.9481,-0.947,-0.9491,-0.949,-0.9481,-0.9493,-0.948,-0.9484,-0.9481,-0.9464,-0.9463,-0.9481,-0.9478,-0.9464,-0.9497,-0.9477,-0.948,-0.9499,-0.9505,-0.951,-0.951,-0.9438,0,0,0,0,0,-0.9502,-0.9509,-0.9499,-0.9518,-0.9518,-0.9506,-0.9509,-0.9499,-0.9497,-0.9497,-0.9491,-0.949,-0.9496,-0.95,-0.9505,-0.9528,-0.9527,-0.954,-0.9545,-0.9549,-0.9552,-0.9564,-0.957,-0.9507,-0.9507,-0.9507,0,0,-0.9522,-0.9516,-0.9522,-0.9525,-0.9523,-0.9531,-0.9506,-0.9516,-0.9522,-0.9498,-0.9513,-0.9508,-0.9506,-0.9526,-0.9534,-0.9524,-0.9569,-0.9553,-0.9556,-0.9557,-0.9567,-0.9573,-0.9579,-0.9509,-0.9509,-0.9508,0,0,-0.9562,-0.9559,-0.9575,-0.9573,-0.957,-0.9561,-0.9565,-0.9558,-0.9554,-0.9568,-0.955,-0.9557,-0.9568,-0.9567,-0.9568,-0.9607,-0.9593,-0.9609,-0.9635,-0.9646,-0.9651,-0.9656,-0.967,-0.9675,-0.9612,-0.9612,-0.9612,0,-0.9588,-0.96,-0.9585,-0.9596,-0.9597,-0.9575,-0.9591,-0.959,-0.9589,-0.959,-0.9578,-0.9591,-0.9588,-0.9606,-0.9616,-0.9617,-0.9621,-0.961,-0.9652,-0.9656,-0.966,-0.9673,-0.9678,-0.9614,-0.9614,-0.9614,-0.9614,0,-0.9631,-0.964,-0.9653,-0.9651,-0.9654,-0.9668,-0.9654,-0.9659,-0.9648,-0.9641,-0.9656,-0.9651,-0.9654,-0.9658,-0.9648,-0.9675,-0.9669,-0.9655,-0.9634,-0.9668,-0.968,-0.9685,-0.9617,-0.9616,-0.9616,-0.9615,0,0,-0.9693,-0.9683,-0.9688,-0.9687,-0.9681,-0.9687,-0.9699,-0.9702,-0.9707,-0.9706,-0.9716,-0.9725,-0.9712,-0.9713,-0.9702,-0.9713,-0.9744,-0.9697,-0.9697,-0.9706,-0.9774,-0.9784,-0.9791,-0.9734,-0.9735,-0.9736,-0.9774,0,-0.9733,-0.9753,-0.9739,-0.9761,-0.9769,-0.9747,-0.9758,-0.9756,-0.9749,-0.9754,-0.9747,-0.9754,-0.9736,-0.9736,-0.9745,-0.9738,-0.9757,-0.9735,-0.9744,-0.9744,-0.9745,-0.9797,-0.9809,-0.9844,-0.9778,-0.9779,-0.978,0,-0.9781,-0.9782,-0.9805,-0.9797,-0.98,-0.981,-0.9811,-0.9816,-0.9813,-0.9807,-0.9808,-0.9795,-0.9806,-0.9785,-0.9801,-0.9786,-0.9789,-0.9785,-0.9787,-0.9787,-0.9764,-0.9799,-0.9855,-0.9861,-0.9787,-0.9787,-0.9786,0,-0.9824,-0.9831,-0.9846,-0.9845,-0.9837,-0.9844,-0.9841,-0.9836,-0.9839,-0.984,-0.9841,-0.9844,-0.9845,-0.9847,-0.9835,-0.9821,-0.9852,-0.983,-0.9848,-0.9848,-0.9856,-0.9855,-0.9913,-0.9857,-0.9857,-0.9857,-0.9857,0,-0.9869,-0.9884,-0.9865,-0.9874,-0.989,-0.9874,-0.989,-0.9884,-0.9881,-0.9888,-0.987,-0.9878,-0.9861,-0.9866,-0.9857,-0.9871,-0.9872,-0.9867,-0.9865,-0.9869,-0.987,-0.9871,-0.9868,-0.9858,-0.9858,-0.9858,-0.9857,0,-0.992,-0.9908,-0.9922,-0.9913,-0.991,-0.9923,-0.9914,-0.9922,-0.9914,-0.9924,-0.9925,-0.9912,-0.9918,-0.9906,-0.991,-0.9903,-0.9923,-0.9917,-0.9925,-0.9923,-0.9941,-0.9939,-1.0002,-1.0009,-0.9948,-0.9949,-0.9949,0,-0.995,-0.9961,-0.9952,-0.9956,-0.9953,-0.9959,-0.9961,-0.9945,-0.9948,-0.9945,-0.9954,-0.9958,-0.996,-0.997,-0.9962,-0.9965,-0.9958,-0.998,-0.9958,-0.9962,-0.9958,-0.9958,-0.9959,-0.9984,-0.9985,-0.9986,-0.9986,0,-1.0005,-0.9998,-1.0001,-1.0002,-1.0005,-1.0005,-1.0005,-1.0009,-0.9992,-0.9996,-1.0001,-1.0003,-1.0007,-1.0011,-1.0012,-1.0009,-0.9995,-0.9993,-0.9997,-1.0002,-1.0006,-1.0004,-0.9937,-0.9991,-0.9991,-0.9991,-0.999,-0.999,-1.0046,-1.0054,-1.0049,-1.0053,-1.0051,-1.005,-1.0057,-1.0049,-1.0053,-1.0055,-1.0045,-1.0053,-1.0049,-1.0048,-1.0046,-1.0052,-1.0042,-1.0049,-1.005,-1.0052,-1.0055,-1.0005,-1.0052,-1.0052,-1.0052,-1.0052,-1.0052,0,-1.0099,-1.0094,-1.0099,-1.0097,-1.0101,-1.0086,-1.0084,-1.0088,-1.0095,-1.0092,-1.0095,-1.0101,-1.0105,-1.0096,-1.0099,-1.0105,-1.0098,-1.0106,-1.0105,-1.0105,-1.0064,-1.006,-1.0111,-1.0111,-1.0111,-1.0111,-1.0111,-1.0111,-1.0127,-1.0141,-1.0133,-1.0145,-1.014,-1.0147,-1.0147,-1.0146,-1.0144,-1.0151,-1.0154,-1.0148,-1.0143,-1.0145,-1.0148,-1.0145,-1.0147,-1.0157,-1.0152,-1.0114,-1.0108,-1.0102,-1.0099,-1.0157,-1.0157,-1.0193,-1.0193,-1.0193]},{"header":{"parameterUnit":"m.s-1","parameterCategory":1,"la1":30.2991,"la2":30.254,"lo1":-89.0895,"lo2":-89.0444,"dy":0.0017,"dx":0.0017,"nx":28,"ny":28,"refTime":"2023-10-05T21:00:00:Z","depth":0,"parameterNumber":3,"parameterNumberName":"V-component_of_WINDS"},"data":[0,0,0,0,0,0,0,0,0,0,0,0,0,0,0,0,0,0,0,0,0,0,0,0,0,0,0,0,0,0,0,0,0,0,0,0,0,0,0,0,0,0,0,0,0,0,0,0,0,0,0,0,0,0,0,0,0,0,-7.2112,-7.2112,0,-7.2164,-7.2165,-7.2165,-7.2106,-7.2103,-7.2101,-7.2099,-7.2147,-7.2151,-7.2154,0,0,0,0,0,0,0,0,0,0,0,0,0,-7.1957,-7.196,-7.2112,-7.2112,-7.2113,-7.2164,-7.2165,-7.2165,-7.2106,-7.2103,-7.2101,-7.2098,-7.2146,-7.215,-7.2154,0,0,0,0,0,0,0,0,0,0,0,0,0,-7.2018,-7.1961,-7.2112,-7.209,-7.2088,-7.2164,-7.2165,-7.2165,-7.2107,-7.2103,-7.21,-7.2097,-7.2145,-7.215,-7.2155,-7.2253,0,0,-7.217,-7.2172,0,0,0,0,0,0,0,0,-7.2015,-7.2024,-7.2092,-7.2091,-7.209,-7.2125,-7.2128,-7.2195,-7.2107,-7.21,-7.2099,-7.2095,-7.2142,-7.2147,-7.2164,-7.2255,-7.2257,-7.2171,-7.2174,-7.2176,-7.2177,0,0,0,0,0,0,0,-7.201,-7.2021,-7.2132,-7.2093,-7.2092,-7.2076,-7.2081,-7.214,-7.2139,-7.21,-7.2096,-7.2103,-7.2141,-7.216,-7.2165,-7.2258,-7.2171,-7.2175,-7.2178,-7.218,-7.2433,-7.2437,0,0,0,0,0,0,-7.2009,-7.2018,-7.213,-7.2134,-7.2044,-7.2082,-7.2087,-7.2117,-7.2138,-7.2138,-7.2106,-7.21,-7.2153,-7.2159,-7.2166,-7.2284,-7.2176,-7.2181,-7.2183,-7.243,-7.2434,-7.2438,0,0,0,0,0,0,-7.2006,-7.202,-7.2128,-7.2075,-7.2087,-7.2088,-7.2122,-7.212,-7.2138,-7.2143,-7.2142,-7.2126,-7.215,-7.2159,-7.2233,-7.2285,-7.2183,-7.2187,-7.2425,-7.2431,-7.2436,-7.2519,0,0,0,0,0,0,-7.2002,-7.2019,-7.2057,-7.2076,-7.2091,-7.2195,-7.2125,-7.2123,-7.2148,-7.2141,-7.2161,-7.2161,-7.2148,-7.2225,-7.2238,-7.229,-7.2191,-7.2421,-7.2428,-7.2434,-7.2512,-7.2527,-7.254,0,0,0,0,0,-7.1997,-7.2077,-7.2059,-7.2073,-7.2138,-7.2198,-7.2206,-7.2192,-7.2152,-7.219,-7.2193,-7.216,-7.2277,-7.2233,-7.2247,-7.2301,-7.2417,-7.2426,-7.2434,-7.2506,-7.2524,-7.254,0,0,0,0,0,0,-7.2061,-7.2079,-7.206,-7.2148,-7.2173,-7.2188,-7.2235,-7.2211,-7.2246,-7.2238,-7.2217,-7.2222,-7.23,-7.2307,-7.2259,-7.2398,-7.2341,-7.2352,-7.2391,-7.2408,-7.2422,-7.2419,-7.2196,0,0,0,0,0,-7.2086,-7.2135,-7.2147,-7.2224,-7.2237,-7.2235,-7.226,-7.2247,-7.227,-7.228,-7.2288,-7.2311,-7.2353,-7.238,-7.2419,-7.2513,-7.2516,-7.2557,-7.2571,-7.2582,-7.2593,-7.2644,-7.2663,-7.2466,-7.2465,-7.2465,0,0,-7.2137,-7.2153,-7.2184,-7.2238,-7.2255,-7.2305,-7.2243,-7.2298,-7.2335,-7.2287,-7.2358,-7.2365,-7.2389,-7.2474,-7.2511,-7.2482,-7.2648,-7.2593,-7.2602,-7.2606,-7.2655,-7.2673,-7.269,-7.2471,-7.247,-7.2469,0,0,-7.2257,-7.2273,-7.2341,-7.236,-7.2388,-7.2386,-7.2402,-7.2422,-7.2426,-7.2497,-7.2463,-7.2505,-7.2578,-7.2597,-7.2616,-7.2746,-7.2717,-7.2758,-7.2832,-7.2883,-7.2898,-7.2912,-7.296,-7.2977,-7.2768,-7.2769,-7.2769,0,-7.2316,-7.2392,-7.2377,-7.2436,-7.2461,-7.2423,-7.2491,-7.2509,-7.2548,-7.2565,-7.2533,-7.2625,-7.2638,-7.2727,-7.2759,-7.2775,-7.2794,-7.2756,-7.2897,-7.2911,-7.2924,-7.2969,-7.2987,-7.2774,-7.2773,-7.2773,-7.2772,0,-7.2465,-7.2518,-7.2569,-7.261,-7.264,-7.2703,-7.2697,-7.2729,-7.2715,-7.2716,-7.2789,-7.2804,-7.2846,-7.2866,-7.2851,-7.2954,-7.2936,-7.2901,-7.2843,-7.2948,-7.299,-7.3007,-7.2781,-7.2779,-7.2778,-7.2776,0,0,-7.2625,-7.266,-7.2679,-7.2698,-7.2727,-7.2767,-7.2829,-7.2872,-7.2901,-7.2928,-7.298,-7.3043,-7.3012,-7.3034,-7.302,-7.3065,-7.3169,-7.3024,-7.3025,-7.3052,-7.3285,-7.3312,-7.3333,-7.315,-7.3153,-7.3156,-7.3284,0,-7.2747,-7.2856,-7.2845,-7.2948,-7.2998,-7.2963,-7.3017,-7.304,-7.3043,-7.3084,-7.3087,-7.3133,-7.3087,-7.3101,-7.3143,-7.3147,-7.3215,-7.3138,-7.3197,-7.3199,-7.3193,-7.3354,-7.3383,-7.3503,-7.33,-7.3303,-7.3305,0,-7.2902,-7.294,-7.3048,-7.3073,-7.3093,-7.3141,-7.3182,-7.3222,-7.3247,-7.3247,-7.3273,-7.3252,-7.3313,-7.3254,-7.3338,-7.3286,-7.3309,-7.3315,-7.3319,-7.3325,-7.3259,-7.3365,-7.354,-7.3559,-7.333,-7.3328,-7.3326,0,-7.3011,-7.3087,-7.3163,-7.318,-7.3209,-7.3245,-7.3258,-7.3281,-7.3309,-7.3343,-7.3361,-7.3401,-7.3423,-7.3455,-7.3446,-7.3403,-7.3532,-7.3472,-7.3533,-7.3534,-7.3563,-7.3561,-7.3745,-7.3576,-7.3576,-7.3576,-7.3575,0,-7.3148,-7.3216,-7.3213,-7.3259,-7.3335,-7.3322,-7.3397,-7.3405,-7.3426,-7.3474,-7.3445,-7.3489,-7.3474,-7.3518,-7.351,-7.3582,-7.3592,-7.3593,-7.359,-7.3596,-7.3597,-7.3612,-7.3604,-7.358,-7.3579,-7.3578,-7.3578,0,-7.3282,-7.3282,-7.3363,-7.3385,-7.3392,-7.3447,-7.3465,-7.3509,-7.3511,-7.3571,-7.3584,-7.3586,-7.3636,-7.3631,-7.3685,-7.3681,-7.3771,-7.3757,-7.3763,-7.376,-7.3823,-7.3818,-7.4024,-7.4051,-7.3864,-7.3866,-7.3867,0,-7.337,-7.3422,-7.3451,-7.3482,-7.3499,-7.3549,-7.3578,-7.3567,-7.3598,-7.3633,-7.3673,-7.3721,-7.3758,-7.384,-7.3845,-7.3888,-7.3876,-7.3946,-7.3882,-7.3887,-7.3879,-7.3877,-7.3882,-7.3958,-7.396,-7.3962,-7.3963,0,-7.3527,-7.3525,-7.3569,-7.3615,-7.3651,-7.3685,-7.3716,-7.3742,-7.3735,-7.3771,-7.3824,-7.3853,-7.3911,-7.3959,-7.4,-7.4012,-7.3987,-7.3984,-7.4,-7.4007,-7.4009,-7.4011,-7.3798,-7.3979,-7.3977,-7.3976,-7.3975,-7.3975,-7.3641,-7.3687,-7.3716,-7.3767,-7.379,-7.382,-7.3863,-7.3872,-7.3916,-7.3964,-7.3954,-7.4014,-7.4039,-7.4091,-7.4108,-7.4153,-7.4128,-7.4152,-7.4158,-7.4164,-7.4173,-7.4002,-7.416,-7.416,-7.4159,-7.4159,-7.4159,0,-7.3798,-7.3816,-7.3863,-7.3909,-7.3949,-7.3924,-7.3958,-7.3992,-7.4046,-7.4073,-7.4112,-7.4173,-7.422,-7.423,-7.4275,-7.431,-7.4299,-7.4322,-7.432,-7.4323,-7.4192,-7.4174,-7.433,-7.433,-7.433,-7.433,-7.433,-7.433,-7.3885,-7.3962,-7.3964,-7.4052,-7.4068,-7.4129,-7.415,-7.4178,-7.42,-7.427,-7.431,-7.4318,-7.4338,-7.4385,-7.4427,-7.4428,-7.4447,-7.4474,-7.4472,-7.4349,-7.4332,-7.4316,-7.4299,-7.4478,-7.4478,-7.4599,-7.46,-7.4601]}]]